Location: Beuerbach
(48.1459°N, 10.9174°E)
Time: 21:11:13
(UTC+00:00)

SL-16 R/B - Pass Details

Date: 13 August 2024
Orbit: 842 x 845 km, 71.0° (Epoch: 07 September)

Event Time Altitude Azimuth Distance (km) Brightness Sun altitude
Exits shadow 00:13:54 28° 273° (W) 1,535 3.4 -26.2°
Maximum altitude 00:15:45 35° 310° (NW) 1,345 3.4 -26.1°
Drops below altitude 10° 00:20:56 10° 15° (NNE) 2,476 5.7 -25.9°
Sets 00:23:37 0° 25° (NNE) 3,415 6.7 -25.8°
